• In Colombia
  • List of Countries
  • For 7 days
  • Water Temperature
  • Weather Map
  • Weather Widgets
  • user-avatar
    Login

    Hourly Weather Marianske Lazne

    Today, 13 December, Friday

    Time Temperature Precipitation Wind Pressure Humidity
    00:00 -2°C° 0 mm 2 mps 693 mmHg 96%
    01:00 -2°C° 0 mm 2 mps 692 mmHg 95%
    02:00 -2°C° 0 mm 2 mps 691 mmHg 94%
    03:00 -2°C° 0 mm 2 mps 690 mmHg 92%
    04:00 -3°C° 0 mm 2 mps 689 mmHg 91%
    05:00 -3°C° 0 mm 2 mps 688 mmHg 92%
    06:00 -4°C° 0 mm 2 mps 687 mmHg 94%
    07:00 -4°C° 0 mm 2 mps 686 mmHg 95%
    08:00 -5°C° 0 mm 3 mps 685 mmHg 93%
    09:00 -4°C° 0 mm 3 mps 684 mmHg 90%
    10:00 -4°C° 0 mm 3 mps 683 mmHg 88%
    11:00 -2°C° 0 mm 3 mps 683 mmHg 86%
    12:00 -2°C° 0 mm 3 mps 683 mmHg 84%
    13:00 -1°C° 0 mm 2 mps 683 mmHg 82%
    14:00 -1°C° 0.6 mm 3 mps 684 mmHg 87%
    15:00 -2°C° 0.6 mm 3 mps 684 mmHg 91%
    16:00 -3°C° 0.6 mm 4 mps 684 mmHg 96%
    17:00 -2°C° 0.4 mm 4 mps 685 mmHg 96%
    18:00 -1°C° 0.4 mm 5 mps 685 mmHg 96%
    19:00 -1°C° 0.4 mm 5 mps 686 mmHg 96%
    20:00 -1°C° 0.2 mm 5 mps 686 mmHg 96%
    21:00 -1°C° 0.2 mm 5 mps 687 mmHg 96%
    22:00 -1°C° 0.2 mm 5 mps 687 mmHg 96%
    23:00 -1°C° 0.3 mm 5 mps 688 mmHg 96%

    Tomorrow, 14 December, Saturday

    Time Temperature Precipitation Wind Pressure Humidity
    00:00 -2°C° 0.3 mm 6 mps 688 mmHg 96%
    01:00 -1°C° 0.3 mm 6 mps 689 mmHg 96%
    02:00 -2°C° 0.3 mm 6 mps 689 mmHg 93%
    03:00 -2°C° 0.3 mm 6 mps 690 mmHg 90%
    04:00 -2°C° 0.3 mm 7 mps 690 mmHg 87%
    05:00 -2°C° 0 mm 6 mps 691 mmHg 87%
    06:00 -1°C° 0 mm 5 mps 691 mmHg 87%
    07:00 -2°C° 0 mm 5 mps 692 mmHg 87%
    08:00 -1°C° 0.5 mm 5 mps 691 mmHg 90%
    09:00 -2°C° 0.5 mm 6 mps 691 mmHg 92%
    10:00 -2°C° 0.5 mm 7 mps 691 mmHg 95%
    11:00 -1°C° 0.6 mm 8 mps 692 mmHg 93%
    12:00 0°C° 0.6 mm 9 mps 692 mmHg 90%
    13:00 +1°C° 0.6 mm 9 mps 693 mmHg 87%
    14:00 0°C° 0.1 mm 8 mps 694 mmHg 85%
    15:00 0°C° 0.1 mm 7 mps 695 mmHg 84%
    16:00 -1°C° 0.1 mm 6 mps 696 mmHg 82%
    17:00 +1°C° 0.2 mm 6 mps 697 mmHg 83%
    18:00 0°C° 0.2 mm 7 mps 697 mmHg 85%
    19:00 0°C° 0.2 mm 7 mps 698 mmHg 87%
    20:00 +1°C° 0 mm 6 mps 698 mmHg 87%
    21:00 +1°C° 0 mm 6 mps 698 mmHg 87%
    22:00 +1°C° 0 mm 5 mps 699 mmHg 87%
    23:00 0°C° 0 mm 5 mps 699 mmHg 89%

    Day after tomorrow, 15 December, Sunday

    Time Temperature Precipitation Wind Pressure Humidity
    00:00 0°C° 0 mm 4 mps 700 mmHg 91%
    01:00 +1°C° 0 mm 3 mps 700 mmHg 93%
    02:00 +1°C° 0.1 mm 3 mps 700 mmHg 93%
    03:00 +1°C° 0.1 mm 3 mps 699 mmHg 94%
    04:00 +2°C° 0.1 mm 3 mps 699 mmHg 95%
    05:00 +3°C° 0.5 mm 4 mps 699 mmHg 94%
    06:00 +4°C° 0.5 mm 4 mps 699 mmHg 93%
    07:00 +5°C° 0.5 mm 5 mps 699 mmHg 91%
    08:00 +4°C° 0.5 mm 6 mps 699 mmHg 90%
    09:00 +4°C° 0.5 mm 6 mps 700 mmHg 88%
    10:00 +5°C° 0.5 mm 7 mps 700 mmHg 87%
    11:00 +5°C° 0.4 mm 7 mps 701 mmHg 87%
    12:00 +5°C° 0.4 mm 7 mps 702 mmHg 87%
    13:00 +4°C° 0.4 mm 6 mps 702 mmHg 87%
    14:00 +5°C° 0.1 mm 5 mps 703 mmHg 88%
    15:00 +4°C° 0.1 mm 4 mps 703 mmHg 89%
    16:00 +3°C° 0.1 mm 3 mps 704 mmHg 90%
    17:00 +3°C° 0 mm 3 mps 704 mmHg 90%
    18:00 +3°C° 0 mm 3 mps 704 mmHg 90%
    19:00 +2°C° 0 mm 3 mps 705 mmHg 90%
    20:00 +2°C° 0.1 mm 3 mps 705 mmHg 90%
    21:00 +3°C° 0.1 mm 3 mps 705 mmHg 91%
    22:00 +3°C° 0.1 mm 3 mps 706 mmHg 91%
    23:00 +3°C° 0 mm 2 mps 706 mmHg 92%

    16 December, Monday

    Time Temperature Precipitation Wind Pressure Humidity
    00:00 +3°C° 0 mm 2 mps 706 mmHg 93%
    01:00 +4°C° 0 mm 1 mps 705 mmHg 94%
    02:00 +4°C° 0 mm 2 mps 706 mmHg 95%
    03:00 +4°C° 0 mm 2 mps 706 mmHg 96%
    04:00 +4°C° 0 mm 2 mps 706 mmHg 96%
    05:00 +4°C° 0 mm 2 mps 706 mmHg 95%
    06:00 +5°C° 0 mm 1 mps 706 mmHg 94%
    07:00 +5°C° 0 mm 1 mps 705 mmHg 92%
    08:00 +5°C° 0 mm 1 mps 706 mmHg 91%
    09:00 +5°C° 0 mm 1 mps 706 mmHg 89%
    10:00 +6°C° 0 mm 1 mps 706 mmHg 88%
    11:00 +6°C° 0 mm 1 mps 706 mmHg 84%
    12:00 +7°C° 0 mm 1 mps 706 mmHg 80%
    13:00 +8°C° 0 mm 1 mps 705 mmHg 76%
    14:00 +7°C° 0 mm 1 mps 705 mmHg 78%
    15:00 +6°C° 0 mm 1 mps 705 mmHg 81%
    16:00 +6°C° 0 mm 1 mps 705 mmHg 83%
    17:00 +5°C° 0 mm 1 mps 705 mmHg 85%
    18:00 +5°C° 0 mm 1 mps 705 mmHg 87%
    19:00 +3°C° 0 mm 2 mps 704 mmHg 89%
    20:00 +3°C° 0 mm 2 mps 704 mmHg 90%
    21:00 +3°C° 0 mm 2 mps 704 mmHg 92%
    22:00 +3°C° 0 mm 1 mps 704 mmHg 93%
    23:00 +3°C° 0 mm 1 mps 704 mmHg 94%

    17 December, Tuesday

    Time Temperature Precipitation Wind Pressure Humidity
    00:00 +3°C° 0 mm 1 mps 704 mmHg 94%
    01:00 +2°C° 0 mm 1 mps 703 mmHg 95%
    02:00 +2°C° 0 mm 1 mps 703 mmHg 95%
    03:00 +2°C° 0 mm 1 mps 703 mmHg 95%
    04:00 +2°C° 0 mm 1 mps 703 mmHg 95%
    05:00 +2°C° 0 mm 1 mps 703 mmHg 95%
    06:00 +1°C° 0 mm 1 mps 703 mmHg 94%
    07:00 +1°C° 0 mm 1 mps 703 mmHg 94%
    08:00 +2°C° 0 mm 1 mps 704 mmHg 93%
    09:00 +2°C° 0 mm 1 mps 704 mmHg 92%
    10:00 +3°C° 0 mm 1 mps 704 mmHg 91%
    11:00 +4°C° 0 mm 1 mps 704 mmHg 88%
    12:00 +5°C° 0 mm 1 mps 704 mmHg 85%
    13:00 +6°C° 0 mm 1 mps 704 mmHg 82%
    14:00 +5°C° 0 mm 1 mps 704 mmHg 85%
    15:00 +4°C° 0 mm 1 mps 704 mmHg 89%
    16:00 +3°C° 0 mm 1 mps 704 mmHg 92%
    17:00 +3°C° 0 mm 1 mps 704 mmHg 92%
    18:00 +3°C° 0 mm 1 mps 704 mmHg 92%
    19:00 +1°C° 0 mm 0 mps 704 mmHg 92%
    20:00 +1°C° 0 mm 0 mps 704 mmHg 91%
    21:00 +2°C° 0 mm 0 mps 704 mmHg 90%
    22:00 +2°C° 0 mm 0 mps 704 mmHg 90%
    23:00 +2°C° 0 mm 0 mps 704 mmHg 89%

    18 December, Wednesday

    Time Temperature Precipitation Wind Pressure Humidity
    00:00 +2°C° 0 mm 0 mps 704 mmHg 89%
    01:00 +2°C° 0 mm 0 mps 704 mmHg 88%
    02:00 +2°C° 0 mm 0 mps 704 mmHg 88%
    03:00 +2°C° 0 mm 0 mps 704 mmHg 88%
    04:00 +2°C° 0 mm 0 mps 704 mmHg 88%
    05:00 +2°C° 0 mm 0 mps 704 mmHg 88%
    06:00 +3°C° 0 mm 1 mps 704 mmHg 88%
    07:00 +3°C° 0 mm 1 mps 705 mmHg 89%
    08:00 +3°C° 0 mm 1 mps 705 mmHg 88%
    09:00 +4°C° 0 mm 1 mps 705 mmHg 86%
    10:00 +4°C° 0 mm 1 mps 705 mmHg 85%
    11:00 +4°C° 0 mm 0 mps 705 mmHg 83%
    12:00 +5°C° 0 mm 0 mps 705 mmHg 81%
    13:00 +6°C° 0 mm 0 mps 705 mmHg 79%
    14:00 +5°C° 0 mm 0 mps 705 mmHg 82%
    15:00 +5°C° 0 mm 0 mps 705 mmHg 85%
    16:00 +4°C° 0 mm 0 mps 705 mmHg 89%
    17:00 +3°C° 0 mm 0 mps 705 mmHg 89%
    18:00 +3°C° 0 mm 0 mps 705 mmHg 89%
    19:00 +4°C° 0 mm 1 mps 705 mmHg 89%
    20:00 +4°C° 0 mm 1 mps 705 mmHg 90%
    21:00 +4°C° 0 mm 1 mps 705 mmHg 90%
    22:00 +4°C° 0 mm 1 mps 705 mmHg 91%
    23:00 +3°C° 0 mm 1 mps 705 mmHg 92%
    Show more